PDT,Max TemperatureF,Mean TemperatureF,Min TemperatureF,Max Dew PointF,MeanDew PointF,Min DewpointF,Max Humidity, Mean Humidity, Min Humidity, Max Sea Level PressureIn, Mean Sea Level PressureIn, Min Sea Level PressureIn, Max VisibilityMiles, Mean VisibilityMiles, Min VisibilityMiles, Max Wind SpeedMPH, Mean Wind SpeedMPH, Max Gust SpeedMPH,PrecipitationIn, CloudCover, Events, WindDirDegrees
2012-9-1,57,48,39,42,41,39,100,75,49,30.18,30.14,30.06,10,8,0,7,6,17,0.00,1,Fog,258
2012-9-2,59,50,42,43,41,39,97,81,48,30.20,30.17,30.15,10,5,0,8,5,,0.00,2,Fog,253
2012-9-3,44,,44,37,37,37,76,76,76,30.15,30.15,30.15,10,10,10,7,7,,0.00,0,,240
2012-9-4,50,46,46,40,38,37,79,70,61,30.23,30.21,30.19,10,10,10,6,5,,0.00,0,,230
2012-9-5,69,56,53,45,43,36,71,58,30,30.10,30.08,30.02,10,10,10,7,4,,0.00,0,,230
2012-9-6,70,68,57,37,35,33,44,34,29,30.16,30.12,30.09,10,10,10,5,3,,0.00,0,,60
2012-9-7,73,70,66,39,37,36,37,30,26,30.22,30.21,30.19,10,10,10,5,5,,0.00,0,,-1
2012-9-8,71,64,57,47,40,36,67,47,29,30.18,30.06,29.99,10,10,10,7,4,,0.00,2,,240
2012-9-9,53,48,44,50,46,41,97,89,82,30.04,30.01,29.94,10,4,0,12,8,24,0.03,8,Fog-Rain,263
2012-9-10,46,42,37,45,38,34,93,87,65,30.21,30.07,29.98,10,6,0,9,8,23,0.05,8,Fog-Rain,277
2012-9-11,53,44,34,38,35,33,96,83,48,30.33,30.29,30.21,10,7,0,6,4,,0.00,1,Fog,225
2012-9-12,48,44,41,35,30,27,76,58,43,30.40,30.35,30.30,10,7,3,6,5,,0.00,2,,230
2012-9-13,63,54,46,32,29,27,50,40,31,30.36,30.31,30.22,6,4,2,9,7,22,0.00,0,,83
2012-9-14,73,64,54,44,37,28,67,44,28,30.14,30.11,30.09,7,7,7,7,5,,0.00,2,,155
2012-9-15,66,54,53,43,40,37,69,55,34,30.17,30.15,30.10,10,7,5,9,6,,0.00,0,,247
2012-9-16,69,61,53,45,37,27,45,36,31,30.27,30.23,30.18,10,5,2,4,4,,0.00,4,,230
2012-9-17,68,68,66,39,35,30,35,30,26,30.25,30.19,30.12,4,4,4,4,2,,0.00,4,,-1
2012-9-18,73,68,57,40,34,30,51,34,21,30.17,30.13,30.09,6,4,1,6,4,,0.00,0,,155
2012-9-19,72,72,68,36,33,30,27,26,24,30.13,30.12,30.11,9,8,8,4,4,,0.00,0,,240
2012-9-20,75,69,63,35,30,19,34,23,17,30.22,30.15,30.08,10,4,2,6,3,,0.00,1,,95
2012-9-21,66,57,48,47,42,36,93,67,37,30.15,30.12,30.06,7,3,0,10,5,16,0.00,8,Fog,230
2012-9-22,44,44,43,43,42,42,97,94,93,30.14,30.14,30.13,0,0,0,8,7,,0.00,,Fog,240
2012-9-23,57,47,39,47,45,39,97,90,72,30.17,30.16,30.15,6,2,0,10,8,18,0.00,0,Fog,232
2012-9-24,48,47,46,47,46,45,97,94,93,30.19,30.14,30.11,8,3,0,8,7,,0.00,1,Fog,230
2012-9-25,55,45,44,45,44,42,93,93,93,30.14,30.11,30.08,8,2,0,7,6,,0.00,6,Fog,235
2012-9-26,63,53,43,45,41,38,93,64,40,30.12,30.10,30.08,8,5,0,7,5,,0.00,0,Fog,209
2012-9-27,63,56,48,39,38,37,66,55,41,30.11,30.08,30.00,7,6,4,5,3,,0.00,4,,45
2012-9-28,61,55,55,40,38,37,49,48,46,30.00,29.98,29.97,9,8,6,4,4,,0.00,0,,100
2012-9-29,54,50,42,49,45,41,96,84,72,30.28,30.19,30.06,10,6,0,7,5,,0.00,3,Fog,-1
2012-9-30,60,50,41,39,36,30,93,73,39,30.42,30.34,30.29,10,6,1,8,7,,0.00,1,,228